Theta_e
288 283 281 283 284 284 282 280 280 282 285 282 282 283 287 289 287 286 287 287 288 287 288 289 291 291 292 292 292 292 292 292 292 292 293 294 295 297 299 299 302 303 303 304
283 280 284 286 285 284 282 280 280 283 285 282 281 282 288 288 287 286 287 285 286 287 288 290 291 291 291 289 290 291 291 291 291 291 292 293 293 294 295 297 298 299 299 300
281 284 287 285 282 282 281 280 279 280 282 283 280 281 285 287 286 287 287 287 287 287 288 290 291 289 288 289 290 291 292 292 292 292 292 292 292 291 292 293 294 296 298 298
282 284 284 281 281 283 279 282 282 281 277 273 279 274 281 285 286 285 286 285 285 287 288 289 290 288 288 289 289 291 293 293 293 292 291 290 289 289 291 292 293 295 297 297
281 281 281 281 282 283 280 283 281 281 276 271 274 271 280 284 284 285 284 285 284 286 288 289 289 290 289 290 289 291 291 291 291 291 291 290 290 291 292 293 293 294 295 296
281 284 283 283 284 284 285 282 281 280 274 268 271 273 278 280 283 285 286 286 287 287 287 288 289 290 289 290 289 289 289 290 291 291 292 292 291 291 292 292 291 292 293 294
280 280 282 284 281 283 282 278 270 271 270 271 276 271 278 283 283 283 286 286 287 287 287 288 287 289 289 289 289 289 289 289 292 293 292 292 291 290 290 290 290 290 290 290
278 276 281 284 282 281 279 279 273 268 271 274 276 272 280 284 285 286 287 287 287 288 288 287 288 289 288 288 288 288 289 291 292 291 291 291 290 290 290 290 291 290 290 290
277 279 282 284 283 282 280 276 281 270 263 269 274 278 284 284 284 285 286 287 287 286 287 286 287 288 288 287 287 290 290 290 290 290 290 290 290 291 290 290 290 290 290 290
281 277 281 281 284 284 281 282 277 276 269 265 272 273 278 280 281 284 285 286 287 286 287 288 288 288 288 286 290 291 290 289 290 290 290 291 291 291 290 290 289 289 289 289
281 280 277 280 278 279 278 277 278 280 278 271 269 275 283 282 282 285 286 286 287 287 288 288 288 287 286 288 289 289 288 288 289 290 292 291 289 289 289 289 288 288 288 289
282 280 272 277 278 280 281 279 279 274 272 273 273 274 285 284 285 288 287 287 288 288 287 287 286 285 285 287 288 288 287 288 289 290 291 290 289 288 288 288 289 289 288 289
282 274 267 274 278 279 277 279 280 278 276 272 271 275 283 284 284 286 284 284 284 285 285 285 284 284 284 285 286 286 287 287 289 290 290 289 287 288 287 288 288 288 288 289
286 277 274 272 275 278 275 277 278 277 268 272 275 276 282 285 283 284 285 283 282 283 284 283 283 283 284 284 285 285 286 288 290 290 289 288 287 287 287 288 288 288 288 289
280 271 274 274 278 278 280 279 277 276 276 273 278 277 283 283 283 284 285 282 281 282 283 283 283 283 283 283 284 285 286 288 289 289 288 287 287 287 287 287 287 288 288 289
280 269 270 269 272 277 278 280 279 278 279 278 280 279 287 286 284 283 283 280 280 280 282 281 283 283 283 283 284 286 288 287 287 288 287 287 287 287 286 286 287 287 287 288
276 273 270 270 268 268 270 276 279 280 279 280 276 281 282 283 283 283 281 281 281 280 280 281 282 282 282 282 284 284 287 286 286 287 287 287 286 285 286 286 286 286 286 287
272 275 275 263 271 267 276 278 279 279 281 282 282 282 283 283 283 283 281 281 281 277 277 281 281 280 281 281 283 285 287 285 285 286 286 286 285 285 285 285 285 286 286 286
280 276 271 267 261 270 277 278 277 276 277 282 282 284 285 283 281 282 283 282 280 276 278 279 280 280 278 278 281 285 283 280 282 285 285 285 285 285 285 285 285 285 285 285
282 282 277 265 266 261 271 276 279 279 274 282 282 283 282 279 276 280 284 283 282 280 277 279 279 279 277 277 277 283 279 278 282 285 284 285 285 285 285 285 285 285 285 285
277 278 276 274 272 270 277 279 280 271 274 279 280 282 279 279 282 284 285 283 283 277 277 278 277 277 278 277 277 278 277 278 279 283 284 284 285 285 285 284 285 285 285 285
271 272 271 271 272 269 279 277 276 279 280 280 280 279 280 281 282 283 283 283 283 278 278 277 276 279 279 279 279 278 277 279 278 281 283 283 283 285 285 284 284 284 284 283
270 273 270 273 274 280 279 280 281 281 281 280 281 282 282 281 281 282 282 282 283 282 281 277 276 279 281 277 279 280 280 278 277 282 283 281 280 283 284 284 283 283 283 281
275 277 276 274 278 279 281 281 281 281 281 282 282 282 281 281 282 282 282 282 282 283 282 279 279 279 279 277 278 279 278 279 279 283 281 280 278 278 280 283 284 283 283 282
278 278 277 275 280 279 281 281 283 282 281 281 282 282 282 281 281 281 281 282 283 283 283 282 281 281 281 280 278 278 280 280 279 282 282 279 278 278 279 280 282 284 284 285
278 278 276 275 281 279 280 282 282 281 281 281 281 281 282 282 282 282 283 283 282 282 282 280 280 278 279 278 278 277 276 279 279 281 282 279 278 276 278 279 278 284 285 287
Wind_Speed
1 3 7 8 7 2 2 3 4 3 2 2 5 11 21 9 8 10 11 8 8 8 3 5 6 8 8 6 7 5 7 3 3 3 2 3 3 4 4 4 6 6 5 6
4 7 4 3 3 4 2 2 5 4 1 1 4 15 22 7 5 3 5 0 5 6 6 7 8 7 5 7 7 7 5 3 3 1 0 1 2 4 4 4 6 7 7 7
6 2 3 3 3 3 3 4 3 4 5 2 8 9 5 4 1 4 7 4 5 8 9 7 7 7 7 7 6 5 3 4 3 3 2 2 2 3 3 4 4 5 7 7
5 0 4 2 3 5 3 1 2 2 5 4 4 6 7 5 6 3 5 6 6 6 5 4 5 4 5 3 1 4 5 4 3 4 2 2 2 3 3 4 4 5 6 8
4 4 3 3 3 1 3 2 3 3 4 5 5 5 9 4 7 4 2 4 4 3 5 5 5 5 4 3 1 2 4 5 5 5 3 3 5 4 4 4 6 6 6 7
1 1 1 2 3 3 5 4 5 4 3 3 5 5 6 4 5 7 3 4 4 5 5 4 4 5 3 2 2 2 3 3 5 4 5 4 6 7 7 7 6 6 4 5
1 1 1 0 3 2 3 4 4 6 4 6 1 3 8 6 5 3 6 6 6 6 4 4 3 1 2 1 4 4 5 6 5 5 6 6 7 6 7 7 7 7 6 6
6 4 4 2 2 5 5 6 6 6 2 3 5 5 1 3 4 4 7 7 7 7 4 2 3 4 2 3 3 4 5 5 6 5 6 5 6 5 6 7 10 8 8 8
5 2 1 2 1 1 4 3 4 8 1 4 3 5 3 4 3 7 7 6 4 3 1 2 4 2 3 3 2 2 4 5 6 7 6 6 6 10 11 12 10 9 11 9
4 3 1 0 1 1 2 3 3 3 1 3 5 5 6 6 5 4 5 7 4 5 6 6 5 4 3 1 1 3 4 6 6 6 5 8 10 10 10 11 12 12 12 11
3 4 1 1 5 6 1 1 1 2 4 5 2 7 5 9 8 5 7 5 5 5 7 7 5 4 3 2 3 5 6 6 6 6 7 9 9 10 12 11 11 12 12 12
3 4 3 4 1 2 2 4 5 5 5 2 3 8 4 8 7 6 4 4 5 6 7 6 7 6 6 6 6 6 6 6 6 6 7 11 10 10 11 11 12 15 13 12
6 1 3 8 4 2 5 5 4 4 3 6 6 7 1 4 4 3 5 4 4 5 6 6 6 6 6 6 6 6 5 6 8 7 9 11 10 11 11 12 12 15 16 16
4 3 7 9 6 5 5 5 6 6 4 3 8 6 9 8 4 6 9 6 5 5 4 5 6 6 6 5 5 5 5 6 10 10 10 11 10 11 12 12 12 13 14 14
5 6 4 4 3 0 4 6 8 8 6 8 10 11 16 7 6 5 6 4 5 6 8 7 7 7 6 6 6 5 5 7 9 9 11 12 11 11 12 12 12 12 12 12
1 3 3 4 3 3 7 12 9 12 14 15 18 27 16 9 7 5 8 6 5 5 7 7 8 9 8 7 6 5 7 7 7 8 10 12 12 11 11 12 12 12 12 11
6 7 3 6 3 5 10 15 17 14 8 18 17 27 4 8 8 8 9 8 7 7 7 8 8 7 7 7 6 6 9 7 8 8 10 11 12 12 10 11 11 11 11 10
7 6 4 4 3 6 7 3 6 17 17 16 13 6 8 8 6 7 7 7 7 6 6 7 6 6 7 5 5 6 8 9 9 8 9 10 11 12 11 11 10 9 9 9
5 5 3 6 6 9 15 7 9 9 12 15 16 18 19 4 5 5 7 6 5 6 6 6 5 5 4 6 6 5 8 6 7 6 10 10 10 12 11 11 10 9 8 9
9 9 9 4 6 11 4 3 2 4 15 11 15 17 12 9 6 5 5 4 5 6 5 6 4 3 4 6 4 5 6 5 6 6 9 9 9 10 10 10 10 7 7 9
10 11 17 16 11 9 9 7 7 9 5 0 7 11 7 7 7 7 6 3 4 4 5 4 3 5 7 5 3 6 5 7 5 5 8 8 7 9 9 11 7 8 8 8
11 8 9 4 8 17 8 4 9 7 2 1 2 0 4 4 6 5 4 5 7 6 6 4 4 6 6 4 4 6 7 5 3 5 6 6 5 6 6 8 8 9 8 7
6 10 7 10 8 4 6 5 5 2 4 1 4 2 2 3 5 7 6 7 7 8 7 3 5 7 8 4 5 6 7 5 3 5 5 5 4 5 7 7 9 8 8 7
6 4 8 4 9 7 8 4 3 6 5 2 2 4 4 6 7 7 7 7 6 8 7 3 3 7 9 4 5 8 5 5 4 5 4 4 2 4 4 5 6 6 7 6
9 10 12 5 14 3 5 5 5 3 1 2 4 4 6 6 9 8 6 7 9 8 6 5 6 7 9 6 6 7 6 6 6 5 5 3 1 1 4 3 5 6 6 8
7 10 10 11 9 4 5 6 4 3 4 9 7 6 7 8 11 8 13 10 8 8 6 6 7 7 9 6 8 7 5 7 6 6 5 4 3 1 2 1 2 9 14 14
Wind_Direction
212 99 215 222 206 184 163 213 245 275 101 297 249 275 282 292 254 277 270 253 239 232 251 184 147 130 113 92 97 90 99 63 57 22 354 357 318 309 308 312 303 307 303 300
43 228 218 162 168 197 181 184 268 286 93 1 347 287 276 288 257 271 304 41 141 106 86 96 110 96 92 120 116 114 124 81 47 57 355 242 283 291 281 299 313 317 314 306
174 191 155 177 186 175 219 193 217 211 331 30 330 293 316 315 6 42 34 77 96 133 127 118 116 137 146 139 149 139 80 39 21 358 343 337 325 321 328 311 303 299 311 309
225 189 178 179 208 146 225 170 95 70 59 239 11 275 313 331 332 57 71 90 117 124 123 141 128 117 146 158 79 39 20 6 349 356 358 312 255 270 249 270 274 288 290 288
246 163 175 178 199 204 199 99 106 90 92 63 333 86 269 338 356 11 109 102 123 129 140 136 133 151 183 141 87 35 358 345 343 343 320 287 275 260 272 276 279 274 275 272
131 315 73 148 80 64 137 85 47 59 93 30 239 131 299 359 320 311 80 120 103 83 109 132 128 131 140 127 56 13 348 326 326 332 329 315 298 293 301 297 291 288 276 269
25 255 312 156 109 67 112 79 332 347 9 220 66 52 240 302 319 310 99 65 83 116 136 154 164 251 277 12 10 353 357 329 346 347 319 302 291 286 285 298 298 298 292 291
162 305 173 191 226 182 174 160 162 213 194 255 355 249 306 311 321 90 102 125 129 153 168 203 252 272 296 342 342 351 350 332 321 308 297 287 285 294 292 292 300 294 292 287
151 217 164 100 36 116 175 196 139 105 66 54 249 278 327 5 76 74 88 91 88 84 175 256 335 29 303 302 360 43 324 309 306 301 296 301 297 314 307 303 299 292 293 283
198 117 210 113 84 65 182 157 86 4 173 265 285 275 199 200 149 123 106 83 21 301 308 311 301 303 320 20 223 295 317 299 294 286 297 315 309 306 304 298 292 290 288 284
137 109 240 80 199 179 48 236 146 119 154 177 210 261 214 174 171 130 87 77 340 323 288 297 308 309 311 270 298 312 309 304 299 288 314 316 309 304 305 294 293 286 287 287
177 131 171 193 306 289 231 222 167 136 239 226 144 270 228 171 176 103 112 259 262 279 310 325 326 322 312 304 302 295 286 301 298 287 307 315 298 297 298 294 292 300 294 290
187 268 53 348 353 358 222 199 156 108 81 199 148 255 78 166 195 0 330 6 341 320 314 303 295 279 262 263 264 292 313 309 313 304 310 311 301 303 301 295 295 302 297 295
109 155 167 186 195 141 191 200 186 146 124 191 227 274 286 256 299 340 341 323 320 279 282 284 304 299 300 303 305 314 317 312 327 313 310 307 302 300 298 294 294 297 297 293
141 197 160 252 259 206 214 210 194 191 189 191 255 234 248 253 205 244 271 290 290 306 324 320 311 302 292 297 300 302 295 315 317 311 312 303 304 302 296 296 294 294 294 289
202 240 111 305 317 263 262 250 207 220 224 239 257 262 258 272 277 268 234 243 262 271 282 291 303 311 311 303 291 285 301 299 306 304 314 306 304 296 300 300 300 298 294 293
154 135 114 256 2 49 299 239 218 231 197 218 230 246 272 251 225 227 240 207 237 246 268 286 283 284 286 280 272 282 297 300 302 302 311 304 302 300 300 299 298 300 300 302
144 142 173 201 139 222 238 175 199 218 238 217 246 263 233 221 203 213 202 201 225 237 258 268 268 284 283 270 257 275 288 296 295 301 304 301 302 299 298 297 300 302 301 313
171 143 178 170 207 300 289 237 174 169 252 213 225 242 247 220 180 241 199 202 212 219 244 241 240 246 264 263 262 281 285 285 288 302 303 302 305 300 305 309 311 304 313 324
199 220 185 148 187 213 234 204 160 118 267 211 199 229 239 137 178 226 203 171 245 237 230 266 284 274 290 277 234 254 262 276 283 304 296 300 307 303 311 312 308 311 324 307
205 202 218 220 226 271 221 201 130 169 250 329 193 242 156 188 199 177 163 261 231 233 276 277 267 259 270 277 205 257 259 268 255 285 290 294 313 313 316 330 322 335 330 312
173 180 211 202 218 249 171 75 189 197 245 196 96 136 152 162 164 170 211 254 272 257 276 250 283 289 273 244 202 258 257 247 262 278 288 295 318 324 331 328 349 353 339 328
194 185 184 181 210 207 202 204 218 133 131 123 116 126 139 235 229 233 245 245 249 248 248 231 227 283 294 236 211 255 254 200 245 274 278 292 325 321 351 349 1 2 354 340
245 161 211 97 232 222 212 225 175 173 188 175 254 277 302 275 274 263 264 267 261 251 248 214 247 272 281 265 236 231 232 200 204 260 264 285 5 336 332 358 9 6 357 341
202 150 212 260 251 95 231 201 197 201 221 294 267 227 241 233 259 239 253 232 235 243 244 216 240 256 263 281 267 254 235 202 213 226 257 239 180 9 322 356 6 14 3 4
183 203 203 230 234 177 206 197 184 192 216 215 208 259 247 231 260 261 273 266 250 244 244 238 246 241 258 266 268 259 222 196 211 215 236 217 174 175 275 344 344 21 17 19